This demonstration page uses our WeatherBlox Daily Observations layout. Learn more.

Left ArrowRight Arrow

Hourly Observations for May 31, 2015

Temp ( °F °C ) Dew Point ( °F °C ) Humidity (%) Winds ( mph kmh ) Pressure ( in mb ) Visibility ( mi km ) Precip ( " mm )
12:17 am 00:17 Partly Cloudy 66 19 N/A N/A ESE 6 9 29.94 1014 10 16.0934 N/A
12:36 am 00:36 Mostly Cloudy 66 19 N/A N/A ESE 3 6 29.94 1014 10 16.0934 N/A
12:56 am 00:56 Mostly Cloudy 66 19 N/A N/A ESE 5 7 29.94 1014 10 16.0934 N/A
1:16 am 01:16 Clear 64 18 N/A N/A ESE 6 9 29.91 1013 10 16.0934 N/A
1:36 am 01:36 Clear 66 19 N/A N/A SE 6 9 29.94 1014 10 16.0934 N/A
1:56 am 01:56 Clear 66 19 N/A N/A ESE 6 9 29.91 1013 10 16.0934 N/A
2:16 am 02:16 Clear 66 19 N/A N/A SE 5 7 29.91 1013 10 16.0934 N/A
2:36 am 02:36 Partly Cloudy 66 19 N/A N/A ESE 5 7 29.91 1013 10 16.0934 N/A
2:56 am 02:56 Mostly Cloudy 66 19 N/A N/A SE 6 9 29.91 1013 10 16.0934 N/A
3:16 am 03:16 Cloudy 66 19 N/A N/A SSE 6 9 29.88 1012 5 8.0467 N/A
3:36 am 03:36 Cloudy 66 19 N/A N/A SSE 5 7 29.88 1012 4 6.43736 N/A
3:56 am 03:56 Cloudy 66 19 N/A N/A SSE 6 9 29.88 1012 7 11.26538 N/A
4:16 am 04:16 Cloudy 66 19 N/A N/A SSE 5 7 29.88 1012 10 16.0934 N/A
4:36 am 04:36 Cloudy 66 19 N/A N/A SSE 7 11 29.88 1012 7 11.26538 N/A
4:56 am 04:56 Cloudy 66 19 N/A N/A SSE 5 7 29.88 1012 7 11.26538 N/A
5:16 am 05:16 Cloudy 66 19 N/A N/A SE 5 7 29.88 1012 5 8.0467 N/A
5:36 am 05:36 Cloudy 66 19 N/A N/A Calm 29.88 1012 3 4.82802 N/A
5:56 am 05:56 Cloudy 66 19 N/A N/A Calm 29.85 1011 2.5 4.02335 N/A
6:17 am 06:17 Cloudy 66 19 N/A N/A Calm 29.88 1012 2.5 4.02335 N/A
6:36 am 06:36 Cloudy 66 19 N/A N/A W 6 9 29.88 1012 3 4.82802 N/A
6:56 am 06:56 Cloudy 66 19 N/A N/A W 6 9 29.88 1012 5 8.0467 N/A
7:16 am 07:16 Cloudy 66 19 N/A N/A W 10 17 29.88 1012 3 4.82802 N/A
7:36 am 07:36 Cloudy 64 18 N/A N/A W 8 13 29.88 1012 1.5 2.41401 N/A
7:56 am 07:56 Cloudy 64 18 N/A N/A W 12 19 29.91 1013 1.25 2.011675 N/A
8:16 am 08:16 Cloudy 61 16 N/A N/A NW 10 17 29.94 1014 1.25 2.011675 N/A
8:36 am 08:36 Cloudy 61 16 N/A N/A NNW 12 19 29.94 1014 1.25 2.011675 N/A
8:56 am 08:56 Cloudy 59 15 N/A N/A NNW 10 17 29.97 1015 2 3.21868 N/A
9:16 am 09:16 Cloudy 59 15 N/A N/A NNW 12 19 29.97 1015 1.25 2.011675 N/A
9:37 am 09:37 Cloudy 59 15 N/A N/A N 15 24 29.97 1015 3 4.82802 N/A
9:56 am 09:56 Cloudy 59 15 N/A N/A NNW 13 20 30 1016 4 6.43736 N/A
10:16 am 10:16 Cloudy 57 14 N/A N/A NNW 14 22 30 1016 2.5 4.02335 N/A
10:36 am 10:36 Cloudy 57 14 N/A N/A NW 10 17 30.03 1017 2 3.21868 N/A
10:56 am 10:56 Cloudy 57 14 N/A N/A NNW 14 22 30.03 1017 2 3.21868 N/A
11:16 am 11:16 Cloudy 57 14 N/A N/A N 14 22 30.03 1017 1.75 2.816345 N/A
11:36 am 11:36 Cloudy 55 13 N/A N/A N 14 22 30.03 1017 3 4.82802 N/A
11:56 am 11:56 Cloudy 57 14 N/A N/A N 13 20 30.06 1018 7 11.26538 N/A
12:17 pm 12:17 Cloudy 57 14 N/A N/A N 9 15 30.06 1018 7 11.26538 N/A
12:36 pm 12:36 Cloudy 57 14 N/A N/A N 14 22 30.06 1018 10 16.0934 N/A
12:56 pm 12:56 Cloudy 57 14 N/A N/A N 12 19 30.06 1018 10 16.0934 N/A
1:16 pm 13:16 Cloudy 57 14 N/A N/A N 14 22 30.06 1018 7 11.26538 N/A
1:36 pm 13:36 Cloudy 59 15 N/A N/A N 10 17 30.06 1018 10 16.0934 N/A
1:56 pm 13:56 Cloudy 57 14 N/A N/A N 10 17 30.09 1019 7 11.26538 N/A
2:16 pm 14:16 Cloudy 59 15 N/A N/A N 12 19 30.09 1019 10 16.0934 N/A
2:36 pm 14:36 Cloudy 57 14 54 12 88 88 N 12 19 30.09 1019 10 16.0934 N/A
2:56 pm 14:56 Cloudy 57 14 54 12 88 88 N 15 24 30.09 1019 10 16.0934 N/A
3:16 pm 15:16 Cloudy 59 15 55 13 88 88 N 13 20 30.09 1019 10 16.0934 N/A
3:36 pm 15:36 Cloudy 59 15 54 12 82 82 N 10 17 30.09 1019 10 16.0934 N/A
3:56 pm 15:56 Cloudy 59 15 55 13 88 88 N 12 19 30.09 1019 10 16.0934 N/A
4:16 pm 16:16 Cloudy 59 15 52 11 77 77 NNE 12 19 30.09 1019 10 16.0934 N/A
4:36 pm 16:36 Cloudy 59 15 54 12 82 82 N 14 22 30.09 1019 10 16.0934 N/A
4:56 pm 16:56 Cloudy 59 15 54 12 82 82 NNE 10 17 30.09 1019 10 16.0934 N/A
5:16 pm 17:16 Cloudy 59 15 52 11 77 77 NNE 12 19 30.09 1019 10 16.0934 N/A
5:37 pm 17:37 Cloudy 59 15 54 12 82 82 ENE 9 15 30.09 1019 10 16.0934 N/A
5:56 pm 17:56 Cloudy 59 15 52 11 77 77 NE 10 17 30.09 1019 10 16.0934 N/A
6:16 pm 18:16 Cloudy 59 15 52 11 77 77 NE 12 19 30.09 1019 10 16.0934 N/A
6:36 pm 18:36 Cloudy 59 15 50 10 72 72 NE 8 13 30.09 1019 10 16.0934 N/A
6:56 pm 18:56 Cloudy 59 15 52 11 77 77 NE 9 15 30.09 1019 10 16.0934 N/A
7:17 pm 19:17 Cloudy 57 14 54 12 88 88 NE 12 19 30.09 1019 10 16.0934 N/A
7:36 pm 19:36 Cloudy 55 13 N/A N/A NE 9 15 30.12 1020 7 11.26538 N/A
7:56 pm 19:56 Cloudy 55 13 N/A N/A NE 10 17 30.12 1020 7 11.26538 N/A
8:16 pm 20:16 Cloudy 55 13 N/A N/A NE 8 13 30.12 1020 10 16.0934 N/A
8:36 pm 20:36 Cloudy 55 13 N/A N/A NE 13 20 30.12 1020 7 11.26538 N/A
8:56 pm 20:56 Cloudy 55 13 N/A N/A NE 12 19 30.12 1020 10 16.0934 N/A
9:16 pm 21:16 Cloudy 54 12 N/A N/A NE 14 22 30.15 1021 10 16.0934 N/A
9:36 pm 21:36 Cloudy 54 12 N/A N/A NE 12 19 30.15 1021 10 16.0934 N/A
9:57 pm 21:57 Cloudy 54 12 N/A N/A NE 10 17 30.18 1022 10 16.0934 N/A
10:16 pm 22:16 Cloudy 54 12 N/A N/A NE 9 15 30.18 1022 10 16.0934 N/A
10:36 pm 22:36 Cloudy 54 12 N/A N/A NE 12 19 30.18 1022 10 16.0934 N/A
10:56 pm 22:56 Cloudy 54 12 N/A N/A ENE 10 17 30.18 1022 10 16.0934 N/A
11:16 pm 23:16 Cloudy 54 12 N/A N/A NE 12 19 30.18 1022 10 16.0934 N/A
11:36 pm 23:36 Cloudy 54 12 N/A N/A NE 10 17 30.18 1022 10 16.0934 N/A
11:56 pm 23:56 Cloudy 54 12 N/A N/A NE 8 13 30.21 1023 10 16.0934 N/A

Powered by AerisWeather